Location: Clover
(42.5131°N, 114.6874°W)
Time: 14:57:29
(UTC+00:00)

Transit 2A Rocket - Pass Details

Date: 08 November 2024
Orbit: 585 x 904 km, 66.7° (Epoch: 02 December)

Event Time Altitude Azimuth Distance (km) Brightness Sun altitude
Rises 03:47:41 0° 319° (NW) 3,239 8.9 -37.7°
Reaches altitude 10° 03:50:28 10° 308° (NW) 2,249 8.0 -38.2°
Enters shadow 03:52:25 19° 291° (WNW) 1,666 7.3 -38.6°
